Regional Weather Roundup
Issued by NWS

Home | Current Version | Previous Version | Text Only | Print | Product List | Glossary Off
Versions: 1 2 3 4 5 6 7 8 9 10 11 12 13 14 15 16 17 18 19 20 21 22 23 24 25 26 27 28 29 30 31 32 33 34 35 36 37 38 39 40 41 42 43 44 45 46 47 48 49 50

000
ASUS43 KIND 231909
RWRIN

WEATHER ROUNDUP FOR INDIANA
NATIONAL WEATHER SERVICE INDIANAPOLIS IN
300 PM EDT SAT JUL 23 2016

NOTE: "FAIR" INDICATES FEW OR NO CLOUDS BELOW 12,000 FEET WITH NO
SIGNIFICANT WEATHER AND/OR OBSTRUCTIONS TO VISIBILITY.

* - STATION DOES NOT REPORT WEATHER SUCH AS PRECIPITATION OR FOG.

+ - STATION NOT QUALITY CONTROLLED BY THE NATIONAL WEATHER SERVICE.
    USE DATA WITH CAUTION...ESPECIALLY DEWPOINT AND RELATIVE
    HUMIDITY OBSERVATIONS.

INZ001>003-010>013-019-020-232000-
NORTHWEST INDIANA

CITY           SKY/WX    TMP DP  RH WIND       PRES   REMARKS
GARY /AIRPORT/ CLOUDY    88  84  89 NE6       29.99  HX 112
KNOX *+        MOSUNNY   88  68  51 SW5       29.99S
LA PORTE +     CLOUDY    91  76  60 SW5       30.00S HX 103
MICHIGAN CITY+ PTSUNNY   88  75  66 NW3       29.99F HX  97
MONTICELLO +   SUNNY     89  71  55 W5        30.00S
RENSSELAER +   CLOUDY    88  77  70 SW8       30.00F HX 100
VALPARAISO     CLOUDY    91  76  61 SW13      30.00S HX 103

$$

LMZ046-743>745-232000-
SOUTHERN LAKE MICHIGAN

STATION/POSITION TIME  TEMP    WIND        PRES    WAVE
                       AIR SEA DIR/SP/G            HT
                 (UTC) (F)     (DEG/KT/KT) (MB)    (FT)
BURNS HARBOR     1800   82      60/  6/  7 1015.9S
MICHIGAN CITY    1800   78      10/  4/  4   N/A
5NW MICH CITY    1900   80 78   80/  2/  4   N/A     1

$$

INZ004-005-014>016-021>024-232000-
NORTH CENTRAL INDIANA

CITY           SKY/WX    TMP DP  RH WIND       PRES   REMARKS
ELKHART        MOSUNNY   91  77  62 W3        30.00S HX 105
LOGANSPORT +   PTSUNNY   88  73  62 SW7       30.01F HX  96
PERU/GRISSOM   PTSUNNY   89  74  59 S7        30.00S HX  98
ROCHESTER +    PTSUNNY   91  79  66 SW8       30.01S HX 107
SOUTH BEND     CLOUDY    90  74  59 NW3       29.99S HX  99
WARSAW +       MOSUNNY   88  72  58 CALM      30.00S

$$

INZ006>009-017-018-025>027-232000-
NORTHEAST INDIANA

CITY           SKY/WX    TMP DP  RH WIND       PRES   REMARKS
ANGOLA *+        N/A     91  86  84 CALM      30.01S HX 122
AUBURN +       SUNNY     91  61  35 W3        30.00F
FORT WAYNE     PTSUNNY   91  69  48 S8        30.00F HX  96
HUNTINGTON +   MOSUNNY  N/A N/A N/A S5        30.00S

$$

INZ028-029-035-036-043>045-051>053-232000-
WEST CENTRAL INDIANA

CITY           SKY/WX    TMP DP  RH WIND       PRES   REMARKS
CRAWFORDSVL +  MOSUNNY   85  76  74 W5        30.02S HX  95
GREENCASTLE +  PTSUNNY   88  79  74 CALM      30.02F HX 102
LAFAYETTE      MOSUNNY   89  76  65 W6        29.99F HX 100
TERRE HAUTE    SUNNY     90  72  55 NE3       30.01S HX  97

$$

INZ030>032-037>040-046>048-054>057-064-065-232000-
CENTRAL INDIANA

CITY           SKY/WX    TMP DP  RH WIND       PRES   REMARKS
ANDERSON       MOSUNNY   88  72  58 VRB3      30.03F
COLUMBUS       MOSUNNY   86  73  66 S3        30.01F
FRANKFORT +    MOSUNNY   92  72  51 CALM      30.03S HX 100
INDIANAPOLIS   PTSUNNY   88  73  61 SW7       30.02S HX  95
-EAGLE CREEK   MOSUNNY   90  72  55 W7        30.01S HX  97
KOKOMO *+      PTSUNNY   90  72  55 CALM      30.00S HX  96
MARION +       PTSUNNY   87  71  59 CALM      30.02S HAZE
MT COMFORT *+  MOSUNNY   88  75  66 CALM      30.02S HX  97
SHELBYVILLE    MOSUNNY   89  72  56 SW5       30.00F HX  96
ZIONSVILLE +   MOSUNNY   86  75  69 CALM      30.03S HX  96

$$

INZ033-034-041-042-049-050-058-059-232000-
EAST CENTRAL INDIANA

CITY           SKY/WX    TMP DP  RH WIND       PRES   REMARKS
MUNCIE         MOSUNNY   89  72  56 NW7       30.01F HX  96

$$

INZ060-061-067>069-081>083-085>088-232000-
SOUTHWEST INDIANA

CITY           SKY/WX    TMP DP  RH WIND       PRES   REMARKS
EVANSVILLE     PTSUNNY   89  75  63 VRB3      29.99F HX  99
HUNTINGBURG *+ MOSUNNY   90  77  66 SW7       30.00S HX 102
WASHINGTON +   MOSUNNY   87  80  77 MISG      29.99F HX 103

$$

INZ062-063-066-070>080-084-089>092-232000-
SOUTH CENTRAL AND SOUTHEAST INDIANA

CITY           SKY/WX    TMP DP  RH WIND       PRES   REMARKS
BLOOMINGTON    MOSUNNY   90  71  53 VRB3      30.01F HX  96
MADISON *+     PTSUNNY   91  70  49 CALM      30.03F HX  97
SEYMOUR +      SUNNY     91  73  55 CALM      30.00F HX 100

$$




USA.gov is the U.S. government's official web portal to all federal, state and local government web resources and services.